Location: *
(40.7873°S, 98.7174°E)
Time: 11:39:49
(UTC+00:00)

Meteor PRIRODA - Visible Passes

Search period start: 26 September 2022 00:00
Search period end: 06 October 2022 00:00
Orbit: 481 x 501 km, 97.6° (Epoch: 26 September)

Date Brightness Start Highest point End Pass type
(mag) Time Alt. Az. Time Alt. Az. Time Alt. Az.
26 Sep 6.9 12:50:31 10° SSW 12:52:56 17° WSW 12:55:20 10° WNW visible
26 Sep 7.0 21:54:00 10° E 21:56:03 15° ESE 21:58:09 10° SSE visible
27 Sep 5.9 12:27:26 10° S 12:30:43 29° WSW 12:33:59 10° NW visible
28 Sep 4.5 12:04:45 10° S 12:08:27 56° WSW 12:12:05 10° NNW visible
29 Sep 6.1 22:19:00 10° NE 22:22:11 28° ESE 22:25:24 10° S visible
30 Sep 7.1 12:54:38 10° SSW 12:56:51 15° WSW 12:59:02 10° WNW visible
30 Sep 7.0 21:57:39 10° ENE 21:59:57 16° ESE 22:02:16 10° SSE visible
01 Oct 6.1 12:31:26 10° SSW 12:34:37 27° WSW 12:37:46 10° NW visible
02 Oct 4.8 12:08:40 10° S 12:12:19 50° WSW 12:15:55 10° NNW visible
03 Oct 5.9 22:22:43 10° NE 22:25:59 31° ESE 22:29:19 10° S visible
04 Oct 7.2 12:58:39 10° SSW 13:00:37 14° WSW 13:02:35 10° W visible
04 Oct 7.0 22:01:13 10° ENE 22:03:43 17° ESE 22:06:14 10° SSE visible
05 Oct 6.3 12:35:18 10° SSW 12:38:23 24° WSW 12:41:26 10° NW visible
